Location: Hylvaty SDH
(49.9612°N, 16.4057°E)
Time: 01:43:18
(UTC+01:00)

Transit 4A - Pass Details

Date: 09 August 2020
Orbit: 864 x 981 km, 66.8° (Epoch: 15 January)

Event Time Altitude Azimuth Distance (km) Brightness Sun altitude
Rises 18:02:22 0° 323° (NW) 3,623 11.5 21.1°
Reaches altitude 10° 18:04:57 10° 328° (NNW) 2,691 10.9 20.6°
Maximum altitude 18:11:10 58° 47° (NE) 1,126 8.4 19.6°
Drops below altitude 10° 18:17:28 10° 126° (SE) 2,726 9.9 18.6°
Sets 18:20:05 0° 130° (SE) 3,674 10.6 18.2°
